User: anonymous   Login
Location: Gollag?dem
(17.0207°N, 80.7261°E)
Time: 10:44:34
(UTC+00:00)
Language:

Cosmos 1953 - Orbit

View from above orbital plane
View from above orbital plane
View from above satellite
View from above satellite

Ground track
Ground track

The orbit data is extracted from the following two-line orbital elements,

1 19210U 88050A   24276.22996969  .00016121  00000-0  79671-3 0  9991
2 19210  82.5132 320.8633 0015168 155.3827 204.8134 15.17637015958081
Epoch (UTC): 02 October 2024 05:31:09
Eccentricity: 0.0015168
inclination: 82.5132°
perigee height: 502 km
apogee height: 523 km
right ascension of ascending node: 320.8633°
argument of perigee: 155.3827°
revolutions per day: 15.17637015
mean anomaly at epoch: 204.8134°
orbit number at epoch: 95808

The dashed part of the orbit path shows where the satellite is in the earth's shadow,  

DLR